GW1722 Weather Reports


time (UTC)temp
F
wind
direction
speed
knots
gust
knots
rain 1hr
in
rain 24hr
in
rain mn
in
humidity
%
barometer
mb
20260906191530 76 117 0.0 0.0 0.00 0.00 0.00 72 1020.5
20260906191029 76 117 0.0 0.0 0.00 0.00 0.00 74 1020.6
20260906190529 77 117 0.0 0.0 0.00 0.00 0.00 70 1020.6
20260906190024 77 118 0.0 0.0 0.00 0.00 0.00 67 1020.9
20260906185523 77 116 0.0 0.0 0.00 0.00 0.00 72 1020.9
20260906185022 77 117 0.0 0.0 0.00 0.00 0.00 70 1020.9
20260906184517 77 117 0.0 0.0 0.00 0.00 0.00 72 1021.0
20260906184013 78 116 0.0 0.0 0.00 0.00 0.00 70 1020.9
20260906183509 79 118 0.0 0.0 0.00 0.00 0.00 70 1021.0
20260906183004 76 117 0.0 0.0 0.00 0.00 0.00 74 1021.0
20260906182459 75 116 0.0 0.0 0.00 0.00 0.00 78 1020.8
20260906181955 76 116 0.0 0.0 0.00 0.00 0.00 76 1021.0
20260906181450 76 116 0.0 0.0 0.00 0.00 0.00 75 1020.7
20260906180946 77 116 0.0 0.0 0.00 0.00 0.00 69 1021.0
20260906180441 79 118 0.0 0.0 0.00 0.00 0.00 72 1021.0
20260906175938 79 120 0.0 0.0 0.00 0.00 0.00 68 1020.8
20260906175433 80 120 0.0 0.0 0.00 0.00 0.00 67 1021.0
20260906174932 81 118 0.0 0.0 0.00 0.00 0.00 66 1021.0
20260906174426 80 118 0.0 0.0 0.00 0.00 0.00 70 1021.1
20260906173921 79 116 0.0 0.0 0.00 0.00 0.00 68 1021.0
20260906173416 79 117 0.0 0.0 0.00 0.00 0.00 73 1020.9
20260906172915 77 119 0.0 0.0 0.00 0.00 0.00 71 1021.1
20260906172413 76 120 0.0 0.0 0.00 0.00 0.00 74 1021.3
20260906171907 78 119 0.0 0.0 0.00 0.00 0.00 70 1021.3
20260906171402 77 119 0.0 0.0 0.00 0.00 0.00 68 1021.1
20260906170858 78 119 0.0 0.0 0.00 0.00 0.00 69 1021.3
20260906170354 76 120 0.0 0.0 0.00 0.00 0.00 73 1021.2
20260906165850 77 120 0.0 0.0 0.00 0.00 0.00 71 1021.1
20260906165349 76 122 0.0 0.0 0.00 0.00 0.00 73 1021.4
20260906164844 77 120 0.0 0.0 0.00 0.00 0.00 75 1021.5
20260906164343 75 121 0.0 0.0 0.00 0.00 0.00 72 1021.8
20260906163839 77 122 0.0 0.0 0.00 0.00 0.00 74 1021.4
20260906163335 77 121 0.0 0.0 0.00 0.00 0.00 74 1021.4
20260906162833 77 121 0.0 0.0 0.00 0.00 0.00 72 1021.5
20260906162332 77 122 0.0 0.0 0.00 0.00 0.00 73 1021.7
20260906161827 77 123 0.0 0.0 0.00 0.00 0.00 73 1021.4
20260906161326 76 121 0.0 0.0 0.00 0.00 0.00 72 1021.5
20260906160825 76 122 0.0 0.0 0.00 0.00 0.00 71 1021.4
20260906160319 75 120 0.0 0.0 0.00 0.00 0.00 73 1021.5
20260906155817 76 121 0.0 0.0 0.00 0.00 0.00 72 1021.4
20260906155312 76 124 0.0 0.0 0.00 0.00 0.00 71 1021.8
20260906154808 75 124 0.0 0.0 0.00 0.00 0.00 72 1021.7
20260906154302 75 121 0.0 0.0 0.00 0.00 0.00 73 1021.5
20260906153801 75 123 0.0 0.0 0.00 0.00 0.00 71 1021.8
20260906153255 75 122 0.0 0.0 0.00 0.00 0.00 76 1021.9
20260906152750 75 122 0.0 0.0 0.00 0.00 0.00 73 1022.0
20260906152245 74 122 0.0 0.0 0.00 0.00 0.00 77 1021.8
20260906151744 73 122 0.0 0.0 0.00 0.00 0.00 76 1022.1
20260906151240 73 128 0.0 0.0 0.00 0.00 0.00 74 1022.2
20260906150735 73 124 0.0 0.0 0.00 0.00 0.00 74 1022.2
20260906150231 73 123 0.0 0.0 0.00 0.00 0.00 76 1022.1
20260906145730 73 124 0.0 0.0 0.00 0.00 0.00 79 1021.9
20260906145229 73 130 0.0 0.0 0.00 0.00 0.00 80 1021.9
20260906144724 72 130 0.0 0.0 0.00 0.00 0.00 83 1021.9
20260906144219 70 130 0.0 0.0 0.00 0.00 0.00 83 1022.2
20260906143718 71 118 0.0 0.0 0.00 0.00 0.00 84 1022.1
20260906143216 70 43 0.0 0.0 0.00 0.00 0.00 86 1022.1
20260906142715 69 104 0.0 0.0 0.00 0.00 0.00 86 1021.9
20260906142211 67 105 0.0 0.0 0.00 0.00 0.00 89 1022.1
20260906141709 65 89 0.0 0.0 0.00 0.00 0.00 97 1022.2
20260906141204 62 111 0.0 0.0 0.00 0.00 0.00 99 1022.0
20260906140704 61 44 0.0 0.0 0.00 0.00 0.00 99 1022.1
20260906140159 60 29 0.0 0.0 0.00 0.00 0.00 99 1021.9
20260906135655 59 30 0.0 0.0 0.00 0.00 0.00 99 1022.0
20260906135151 58 30 0.0 0.0 0.00 0.00 0.00 99 1021.9
20260906134647 58 30 0.0 0.0 0.00 0.00 0.00 99 1022.0
20260906134142 57 30 0.0 0.0 0.00 0.00 0.00 99 1022.1
20260906133637 57 30 0.0 0.0 0.00 0.00 0.00 99 1022.0
20260906133132 56 30 0.0 0.0 0.00 0.00 0.00 99 1022.0
20260906132627 55 30 0.0 0.0 0.00 0.00 0.00 99 1021.9
20260906132123 55 30 0.0 0.0 0.00 0.00 0.00 99 1022.0
20260906131618 54 30 0.0 0.0 0.00 0.00 0.00 99 1021.9
20260906131113 53 30 0.0 0.0 0.00 0.00 0.00 99 1021.9
20260906130609 53 30 0.0 0.0 0.00 0.00 0.00 99 1021.9
20260906130103 52 30 0.0 0.0 0.00 0.00 0.00 99 1022.0
20260906125600 51 30 0.0 0.0 0.00 0.00 0.00 99 1021.9
20260906125054 51 30 0.0 0.0 0.00 0.00 0.00 99 1021.8
20260906124550 51 30 0.0 0.0 0.00 0.00 0.00 99 1021.8
20260906124045 51 30 0.0 0.0 0.00 0.00 0.00 99 1021.7
20260906123544 50 30 0.0 0.0 0.00 0.00 0.00 99 1021.8
20260906123039 50 30 0.0 0.0 0.00 0.00 0.00 99 1021.8
20260906122538 50 29 0.0 0.0 0.00 0.00 0.00 99 1021.9
20260906122035 50 29 0.0 0.0 0.00 0.00 0.00 99 1021.9
20260906121531 50 29 0.0 0.0 0.00 0.00 0.00 99 1021.7
20260906121027 49 29 0.0 0.0 0.00 0.00 0.00 99 1021.5
20260906120522 49 29 0.0 0.0 0.00 0.00 0.00 99 1021.8
20260906120020 50 29 0.0 0.0 0.00 0.00 0.00 99 1021.5
20260906115519 49 29 0.0 0.0 0.00 0.00 0.00 99 1021.4
20260906115014 49 29 0.0 0.0 0.00 0.00 0.00 99 1021.4
20260906114508 49 28 0.0 0.0 0.00 0.00 0.00 99 1021.4
20260906114004 49 28 0.0 0.0 0.00 0.00 0.00 99 1021.4
20260906113503 49 28 0.0 0.0 0.00 0.00 0.00 99 1021.3
20260906112958 50 28 0.0 0.0 0.00 0.00 0.00 99 1021.3
20260906112453 50 28 0.0 0.0 0.00 0.00 0.00 99 1021.4
20260906111949 50 28 0.0 0.0 0.00 0.00 0.00 99 1021.5
20260906111448 50 28 0.0 0.0 0.00 0.00 0.00 99 1021.4
20260906110944 50 28 0.0 0.0 0.00 0.00 0.00 99 1021.0
20260906110439 50 28 0.0 0.0 0.00 0.00 0.00 99 1021.1
20260906105937 50 28 0.0 0.0 0.00 0.00 0.00 99 1020.9
20260906105434 50 28 0.0 0.0 0.00 0.00 0.00 99 1021.1
20260906104930 50 28 0.0 0.0 0.00 0.00 0.00 99 1021.1
20260906104428 51 28 0.0 0.0 0.00 0.00 0.00 99 1021.0
20260906103927 51 28 0.0 0.0 0.00 0.00 0.00 99 1021.1
20260906103426 51 28 0.0 0.0 0.00 0.00 0.00 99 1021.0
20260906102921 51 28 0.0 0.0 0.00 0.00 0.00 99 1020.8
20260906102421 51 28 0.0 0.0 0.00 0.00 0.00 99 1021.0
20260906101915 51 28 0.0 0.0 0.00 0.00 0.00 99 1020.9
20260906101411 51 28 0.0 0.0 0.00 0.00 0.00 99 1021.1
20260906100906 51 28 0.0 0.0 0.00 0.00 0.00 99 1021.1
20260906100406 51 28 0.0 0.0 0.00 0.00 0.00 99 1021.0
20260906095900 51 28 0.0 0.0 0.00 0.00 0.00 99 1020.8
20260906095355 51 28 0.0 0.0 0.00 0.00 0.00 99 1021.0
20260906094850 51 28 0.0 0.0 0.00 0.00 0.00 99 1020.8
20260906094345 51 28 0.0 0.0 0.00 0.00 0.00 99 1021.0
20260906093841 51 28 0.0 0.0 0.00 0.00 0.00 99 1020.9
20260906093337 51 28 0.0 0.0 0.00 0.00 0.00 99 1020.9
20260906092832 51 28 0.0 0.0 0.00 0.00 0.00 99 1021.1
20260906092331 51 28 0.0 0.0 0.00 0.00 0.00 99 1020.8
20260906091827 51 28 0.0 0.0 0.00 0.00 0.00 99 1021.0
20260906091323 51 27 0.0 0.0 0.00 0.00 0.00 99 1021.2
20260906090820 51 27 0.0 0.0 0.00 0.00 0.00 99 1021.1
20260906090318 52 28 0.0 0.0 0.00 0.00 0.00 99 1021.1
20260906085813 52 28 0.0 0.0 0.00 0.00 0.00 99 1020.9
20260906085311 52 28 0.0 0.0 0.00 0.00 0.00 99 1020.7
20260906084807 52 28 0.0 0.0 0.00 0.00 0.00 99 1020.9
20260906084306 52 28 0.0 0.0 0.00 0.00 0.00 99 1020.9
20260906083801 52 28 0.0 0.0 0.00 0.00 0.00 99 1020.8
20260906083257 51 28 0.0 0.0 0.00 0.00 0.00 99 1020.8
20260906082751 51 28 0.0 0.0 0.00 0.00 0.00 99 1020.7
20260906082246 51 28 0.0 0.0 0.00 0.00 0.00 99 1020.8
20260906081742 52 28 0.0 0.0 0.00 0.00 0.00 99 1020.7
20260906081238 52 28 0.0 0.0 0.00 0.00 0.00 99 1020.7
20260906080734 52 28 0.0 0.0 0.00 0.00 0.00 99 1020.7
20260906080230 52 28 0.0 0.0 0.00 0.00 0.00 99 1020.4
20260906075729 52 28 0.0 0.0 0.00 0.00 0.00 99 1020.3
20260906075224 53 28 0.0 0.0 0.00 0.00 0.00 99 1020.6
20260906074720 53 29 0.0 0.0 0.00 0.00 0.00 99 1020.6
20260906074218 53 29 0.0 0.0 0.00 0.00 0.00 99 1020.7
20260906073713 53 29 0.0 0.0 0.00 0.00 0.00 99 1020.6
20260906073208 53 28 0.0 0.0 0.00 0.00 0.00 99 1020.4
20260906072704 53 29 0.0 0.0 0.00 0.00 0.00 99 1020.5
20260906072159 54 29 0.0 0.0 0.00 0.00 0.00 99 1020.5
20260906071655 54 28 0.0 0.0 0.00 0.00 0.00 99 1020.5
20260906071155 54 28 0.0 0.0 0.00 0.00 0.00 99 1020.3
20260906070652 53 28 0.0 0.0 0.00 0.00 0.00 99 1020.3
20260906070147 53 28 0.0 0.0 0.00 0.00 0.00 99 1020.5
20260906065647 53 30 0.0 0.0 0.00 0.00 0.00 99 1020.4
20260906065142 53 30 0.0 0.0 0.00 0.00 0.00 99 1020.5
20260906064638 53 29 0.0 0.0 0.00 0.00 0.00 99 1020.4
20260906064133 54 29 0.0 0.0 0.00 0.00 0.00 99 1020.4
20260906063628 54 30 0.0 0.0 0.00 0.00 0.00 99 1020.4
20260906063124 55 28 0.0 0.0 0.00 0.00 0.00 99 1020.3
20260906062619 55 28 0.0 0.0 0.00 0.00 0.00 99 1020.4
20260906062118 55 28 0.0 0.0 0.00 0.00 0.00 99 1020.4
20260906061614 55 28 0.0 0.0 0.00 0.00 0.00 99 1020.3
20260906061114 55 28 0.0 0.0 0.00 0.00 0.00 99 1020.1
20260906060611 55 28 0.0 0.0 0.00 0.00 0.00 99 1020.3
20260906060108 55 29 0.0 0.0 0.00 0.00 0.00 99 1020.2
20260906055603 55 29 0.0 0.0 0.00 0.00 0.00 99 1020.1
20260906055058 55 29 0.0 0.0 0.00 0.00 0.00 99 1020.1
20260906054558 55 29 0.0 0.0 0.00 0.00 0.00 99 1020.2
20260906054053 55 29 0.0 0.0 0.00 0.00 0.00 99 1020.1
20260906053550 55 29 0.0 0.0 0.00 0.00 0.00 99 1019.8
20260906053045 55 29 0.0 0.0 0.00 0.00 0.00 99 1020.0
20260906052540 55 28 0.0 0.0 0.00 0.00 0.00 99 1019.9
20260906052038 55 29 0.0 0.0 0.00 0.00 0.00 99 1019.8
20260906051533 55 28 0.0 0.0 0.00 0.00 0.00 99 1019.8
20260906051028 55 28 0.0 0.0 0.00 0.00 0.00 99 1019.9
20260906050523 55 29 0.0 0.0 0.00 0.00 0.00 99 1020.1
20260906050018 56 28 0.0 0.0 0.00 0.00 0.00 99 1019.8
20260906045516 56 28 0.0 0.0 0.00 0.00 0.00 99 1019.8
20260906045012 56 29 0.0 0.0 0.00 0.00 0.00 99 1019.8
20260906044508 56 29 0.0 0.0 0.00 0.00 0.00 99 1019.9
20260906044003 56 29 0.0 0.0 0.00 0.00 0.00 99 1020.0
20260906043458 56 29 0.0 0.0 0.00 0.00 0.00 99 1020.0
20260906042949 56 29 0.0 0.0 0.00 0.00 0.00 99 1019.8
20260906042448 57 27 0.0 0.0 0.00 0.00 0.00 99 1019.6
20260906041948 57 27 0.0 0.0 0.00 0.00 0.00 99 1019.8
20260906041444 57 27 0.0 0.0 0.00 0.00 0.00 99 1019.7
20260906040943 57 27 0.0 0.0 0.00 0.00 0.00 99 1019.7
20260906040438 57 27 0.0 0.0 0.00 0.00 0.00 99 1019.6
20260906035934 57 27 0.0 0.0 0.00 0.00 0.00 99 1019.5
20260906035429 57 27 0.0 0.0 0.00 0.00 0.00 99 1019.3
20260906034924 57 27 0.0 0.0 0.00 0.00 0.00 99 1019.5
20260906034419 58 27 0.0 0.0 0.00 0.00 0.00 99 1019.5
20260906033915 58 27 0.0 0.0 0.00 0.00 0.00 99 1019.5
20260906033415 58 27 0.0 0.0 0.00 0.00 0.00 99 1019.4
20260906032910 58 28 0.0 0.0 0.00 0.00 0.00 99 1019.5
20260906032406 58 28 0.0 0.0 0.00 0.00 0.00 99 1019.5
20260906031901 58 28 0.0 0.0 0.00 0.00 0.00 99 1019.5
20260906031356 58 28 0.0 0.0 0.00 0.00 0.00 99 1019.7
20260906030851 59 28 0.0 0.0 0.00 0.00 0.00 99 1019.4
20260906030346 59 28 0.0 0.0 0.00 0.00 0.00 99 1019.5
20260906025841 59 28 0.0 0.0 0.00 0.00 0.00 99 1019.5
20260906025335 59 28 0.0 0.0 0.00 0.00 0.00 98 1019.6
20260906024834 59 28 0.0 0.0 0.00 0.00 0.00 98 1019.5
20260906024333 59 28 0.0 0.0 0.00 0.00 0.00 97 1019.6
20260906023829 59 28 0.0 0.0 0.00 0.00 0.00 97 1019.2
20260906023324 60 28 0.0 0.0 0.00 0.00 0.00 97 1019.3
20260906022819 60 28 0.0 0.0 0.00 0.00 0.00 97 1019.2
20260906022314 60 28 0.0 0.0 0.00 0.00 0.00 96 1019.2
20260906021810 60 28 0.0 0.0 0.00 0.00 0.00 96 1019.3
20260906021304 61 28 0.0 0.0 0.00 0.00 0.00 96 1019.1
20260906020759 61 28 0.0 0.0 0.00 0.00 0.00 95 1019.5
20260906020259 61 28 0.0 0.0 0.00 0.00 0.00 94 1019.3
20260906015758 61 28 0.0 0.0 0.00 0.00 0.00 94 1019.2
20260906015257 62 28 0.0 0.0 0.00 0.00 0.00 94 1019.4
20260906014752 62 29 0.0 0.0 0.00 0.00 0.00 94 1019.4
20260906014247 62 29 0.0 0.0 0.00 0.00 0.00 95 1019.5
20260906013743 62 29 0.0 0.0 0.00 0.00 0.00 94 1019.4
20260906013243 62 29 0.0 0.0 0.00 0.00 0.00 93 1019.3
20260906012739 62 29 0.0 0.0 0.00 0.00 0.00 93 1019.1
20260906012233 63 31 0.0 0.0 0.00 0.00 0.00 93 1019.2
20260906011729 63 31 0.0 0.0 0.00 0.00 0.00 93 1018.9
20260906011223 63 31 0.0 0.0 0.00 0.00 0.00 92 1019.0
20260906010718 64 31 0.0 0.0 0.00 0.00 0.00 92 1019.1
20260906010214 64 31 0.0 0.0 0.00 0.00 0.00 91 1019.0
20260906005709 64 31 0.0 0.0 0.00 0.00 0.00 91 1019.0
20260906005209 64 31 0.0 0.0 0.00 0.00 0.00 90 1019.1
20260906004708 64 31 0.0 0.0 0.00 0.00 0.00 90 1019.2
20260906004203 65 31 0.0 0.0 0.00 0.00 0.00 91 1019.0
20260906003658 65 31 0.0 0.0 0.00 0.00 0.00 90 1019.0
20260906003153 66 34 0.0 0.0 0.00 0.00 0.00 89 1019.0
20260906002648 66 34 0.0 0.0 0.00 0.00 0.00 90 1019.0
20260906002142 66 34 0.0 0.0 0.00 0.00 0.00 90 1019.0
20260906001637 67 34 0.0 0.0 0.00 0.00 0.00 89 1019.1
20260906001132 67 34 0.0 0.0 0.00 0.00 0.00 88 1018.9
20260906000628 68 34 0.0 0.0 0.00 0.00 0.00 88 1018.7
20260906000123 68 357 0.0 0.0 0.00 0.00 0.00 88 1018.7
20260905235622 68 297 0.0 0.0 0.00 0.00 0.00 85 1018.8
20260905235117 69 30 0.0 0.0 0.00 0.00 0.00 86 1018.5
20260905234612 69 29 0.0 0.0 0.00 0.00 0.00 85 1018.7
20260905234107 69 29 0.0 0.0 0.00 0.00 0.00 85 1018.7
20260905233602 70 31 0.0 0.0 0.00 0.00 0.00 86 1018.5
20260905233057 70 50 0.0 0.0 0.00 0.00 0.00 85 1018.5
20260905232552 71 355 0.0 0.0 0.00 0.00 0.00 84 1018.4
20260905232048 71 354 0.0 0.0 0.00 0.00 0.00 82 1018.4
20260905231542 71 342 0.0 0.0 0.00 0.00 0.00 82 1018.9
20260905231039 72 314 0.0 0.0 0.00 0.00 0.00 81 1018.5
20260905230538 72 349 0.0 0.0 0.00 0.00 0.00 82 1018.3
20260905230036 72 339 0.0 0.0 0.00 0.00 0.00 82 1018.5
20260905225531 72 350 0.0 0.0 0.00 0.00 0.00 81 1018.1
20260905225027 72 358 0.0 0.0 0.00 0.00 0.00 83 1018.1
20260905224521 73 335 0.0 0.0 0.00 0.00 0.00 81 1018.0
20260905224020 73 2 0.0 0.0 0.00 0.00 0.00 80 1018.5
20260905223519 73 312 0.0 0.0 0.00 0.00 0.00 78 1018.6
20260905223014 74 343 0.0 0.0 0.00 0.00 0.00 81 1018.4
20260905222514 74 346 0.0 0.0 0.00 0.00 0.00 79 1018.3
20260905222009 75 350 0.0 0.0 0.00 0.00 0.00 78 1018.4
20260905221505 76 5 0.0 0.0 0.00 0.00 0.00 76 1018.1
20260905221001 76 359 0.0 0.0 0.00 0.00 0.00 72 1018.3
20260905220457 76 307 0.0 0.0 0.00 0.00 0.00 74 1018.4
20260905215956 76 338 0.0 0.0 0.00 0.00 0.00 71 1018.4
20260905215452 77 337 0.0 0.0 0.00 0.00 0.00 69 1018.0
20260905214948 77 237 0.0 0.0 0.00 0.00 0.00 67 1018.1
20260905214443 77 234 0.0 0.0 0.00 0.00 0.00 67 1018.0
20260905213938 77 288 0.0 0.0 0.00 0.00 0.00 68 1018.0
20260905213434 77 271 0.0 0.0 0.00 0.00 0.00 68 1017.9
20260905212929 77 305 0.0 0.0 0.00 0.00 0.00 68 1018.0
20260905212424 77 302 0.0 0.0 0.00 0.00 0.00 69 1018.1
20260905211923 76 321 0.0 0.0 0.00 0.00 0.00 66 1017.7
20260905211419 76 320 0.0 0.0 0.00 0.00 0.00 72 1017.9
20260905210914 74 53 0.0 0.0 0.00 0.00 0.00 74 1017.8
20260905210409 75 53 0.0 0.0 0.00 0.00 0.00 74 1018.0
20260905205909 76 53 0.0 0.0 0.00 0.00 0.00 70 1018.0
20260905205403 77 53 0.0 0.0 0.00 0.00 0.00 73 1017.9
20260905204902 78 53 0.0 0.0 0.00 0.00 0.00 65 1017.8
20260905204359 80 151 0.0 0.0 0.00 0.00 0.00 60 1017.8
20260905203857 80 7 0.0 0.0 0.00 0.00 0.00 68 1017.8
20260905203353 82 271 0.0 0.0 0.00 0.00 0.00 63 1017.9
20260905202848 80 268 0.0 0.0 0.00 0.00 0.00 58 1017.9
20260905202343 80 227 0.0 0.0 0.00 0.00 0.00 65 1018.0
20260905201838 79 276 0.0 0.0 0.00 0.00 0.00 61 1018.1
20260905201334 77 270 0.0 0.0 0.00 0.00 0.00 67 1017.9
20260905200828 76 282 0.0 0.0 0.00 0.00 0.00 66 1018.1
20260905200326 76 293 0.0 0.0 0.00 0.00 0.00 70 1018.1
20260905195822 79 312 0.0 0.0 0.00 0.00 0.00 64 1018.0
20260905195317 82 337 0.0 0.0 0.00 0.00 0.00 63 1017.9
20260905194813 81 276 0.0 0.0 0.00 0.00 0.00 62 1018.1
20260905194307 79 277 0.0 0.0 0.00 0.00 0.00 64 1018.3
20260905193806 78 341 0.0 0.0 0.00 0.00 0.00 64 1018.6
20260905193301 76 342 0.0 0.0 0.00 0.00 0.00 76 1018.4
20260905192756 75 343 0.0 0.0 0.00 0.00 0.00 77 1018.3
20260905192253 75 343 0.0 0.0 0.00 0.00 0.00 74 1018.7
20260905191752 77 342 0.0 0.0 0.00 0.00 0.00 73 1018.4